Regional Weather Roundup
Issued by NWS Sioux Falls, SD

Home | Current Version | Previous Version | Text Only | Print | Product List | Glossary On
Versions: 1 2 3 4 5 6 7 8 9 10 11 12 13 14 15 16 17 18 19 20 21 22 23 24 25 26 27 28 29 30 31 32 33 34 35 36 37 38 39 40 41 42 43 44 45 46 47 48 49 50
000
ASUS43 KFSD 250910
RWRFSD

WEATHER ROUNDUP FOR SE SOUTH DAKOTA/SW MINNESOTA/NW IOWA
NATIONAL WEATHER SERVICE SIOUX FALLS SD
300 AM CST SAT FEB 25 2017

NOTE: "FAIR" INDICATES FEW OR NO CLOUDS BELOW 12,000 FEET WITH NO
SIGNIFICANT WEATHER AND OR OBSTRUCTIONS TO VISIBILITY.


SDZ038>040-050-052>070-251000-
SOUTHEAST SOUTH DAKOTA

CITY           SKY/WX    TMP DP  RH WIND       PRES   REMARKS
BROOKINGS      CLEAR     15  12  88 NW8       30.03S WCI   4
CHAMBERLAIN    CLOUDY    21  19  90 CALM      30.09F
HURON          CLEAR     13  12  96 W6        30.09F WCI   4
MADISON        FAIR      16  16 100 NW10      30.04S WCI   3
MITCHELL       CLEAR     18  14  84 W7        30.11F WCI   9
SIOUX FALLS    CLEAR     16  13  88 NW12      30.05F WCI   3
WINNER         CLOUDY    15   9  76 SW6       30.07F WCI   6
YANKTON        CLOUDY    14   7  73 NW13      30.09F WCI   0
$$

MNZ071-072-080-081-089-090-097-098-251000-
SOUTHWEST MINNESOTA

CITY           SKY/WX    TMP DP  RH WIND       PRES   REMARKS
FAIRMONT       CLEAR     15  10  80 NW18      29.96R WCI  -2
JACKSON        CLEAR     14   9  79 NW21G26   29.97R WCI  -4
LUVERNE        CLEAR     18  12  79 NW12      30.04S WCI   5
MARSHALL       CLEAR     17  12  80 NW17      30.02F WCI   1
MONTEVIDEO     CLEAR     16   9  73 N12       30.04S WCI   3
PIPESTONE      CLEAR     18  10  73 NW10      30.01S WCI   6
REDWOOD FALLS  CLEAR     17   6  62 NW13      29.99F WCI   4
TRACY          CLEAR     18  11  75 NW18      30.01S WCI   2
WINDOM         CLEAR     16   9  73 NW18G24   29.97S WCI  -1
WORTHINGTON    CLEAR     15   9  76 NW17      30.00R WCI  -1
$$

IAZ001>003-012>014-020>022-031-032-NEZ013-014-SDZ071-251000-
NORTHWEST IOWA

CITY           SKY/WX    TMP DP  RH WIND       PRES   REMARKS
CHEROKEE       CLEAR     16  13  86 NW12      30.04R WCI   3
DENISON        CLEAR     18  12  79 NW13      30.02S WCI   4
ESTHERVILLE    CLEAR     14   9  80 NW22      29.96S WCI  -4
LE MARS        CLEAR     18  12  79 NW14      30.07F WCI   4
SHELDON        CLEAR     16  16 100 NW16      30.01S WCI   0
SIOUX CITY     CLEAR     21  14  74 NW15      30.08F WCI   8
SPENCER        CLEAR     15   9  76 NW14      30.00S WCI   0
STORM LAKE     CLEAR     14  10  85 NW17      30.00S FOG     WCI  -3
$$

ABBREVIATIONS USED IN REMARKS
   TC - TEMPERATURE IN CELSIUS
  WCI - WIND CHILL INDEX
   HX - HEAT INDEX
  VSB - VISIBILITY




USA.gov is the U.S. government's official web portal to all federal, state and local government web resources and services.